Probability
0 0 0 0 0 0 0 0 0 0 0 0 0 0 0 0 0 0 0 0 0 0 0 23 32 0 0 6 23 71 100 100 100 100 100 100 100 100 100 100 100 100 100 100 100 100 100 100 100
0 0 0 0 0 0 0 0 0 0 0 0 0 0 0 0 0 0 0 0 0 0 0 3 84 58 10 16 23 87 100 100 100 100 100 100 100 100 100 100 100 100 100 100 100 100 100 100 100
0 0 0 0 0 0 0 0 0 0 0 0 0 0 0 0 0 0 0 0 0 0 0 0 100 87 32 29 77 100 100 100 100 100 100 100 100 100 100 100 100 100 100 100 100 100 100 100 100
0 0 0 0 0 0 0 0 0 0 0 0 0 0 0 0 0 0 0 0 0 0 0 3 100 100 84 65 94 100 100 100 100 100 97 97 100 100 100 100 100 100 100 100 100 100 100 100 100
0 0 0 0 0 0 0 0 0 0 0 0 0 0 0 0 0 0 0 0 0 0 0 0 100 100 100 94 97 97 94 23 48 81 84 97 100 100 100 100 100 100 100 100 100 100 100 100 100
0 0 0 0 0 0 0 0 0 0 0 0 0 0 0 0 0 0 0 0 0 0 0 0 97 100 100 100 97 94 90 26 6 19 16 74 100 100 100 100 100 100 100 100 100 100 100 100 100
0 0 0 0 0 0 0 0 0 0 0 0 0 0 0 0 0 0 0 0 0 0 0 3 65 100 100 100 100 100 100 87 45 19 10 42 94 100 100 100 100 100 100 100 100 100 100 100 100
0 0 0 0 0 0 0 0 0 0 0 0 0 0 0 0 0 0 0 0 0 0 0 0 35 55 68 65 100 100 100 94 48 39 10 10 48 87 97 100 100 100 100 100 100 100 100 100 100
0 0 0 0 0 0 0 0 0 0 0 0 0 0 0 0 0 0 0 0 0 0 0 0 0 16 13 0 0 35 81 74 0 3 0 3 3 0 0 0 23 74 100 100 100 100 100 100 100
0 0 0 0 0 0 0 0 0 0 0 0 0 0 0 0 0 0 0 0 0 0 0 0 0 0 10 0 0 0 0 3 0 0 0 0 0 0 0 0 0 0 32 87 100 100 100 100 32
0 0 0 0 0 0 0 0 0 0 0 0 0 0 0 0 0 0 0 0 0 0 0 0 0 0 0 0 0 0 0 0 0 0 0 0 0 0 0 0 0 0 0 0 42 100 100 68 16
0 0 0 0 0 0 0 0 0 0 0 0 0 0 0 0 0 0 0 0 0 0 0 0 0 0 0 0 0 0 0 0 0 0 0 0 0 0 0 0 0 0 0 0 0 35 39 10 0
0 0 0 0 0 0 0 0 0 0 0 0 0 0 0 0 0 0 0 0 0 0 0 0 0 0 0 0 0 0 0 0 0 0 0 0 0 0 0 0 0 0 0 0 0 0 3 0 0
0 0 0 0 0 0 0 0 0 0 0 0 0 0 0 0 0 0 0 0 0 0 0 0 0 0 0 0 0 0 0 0 0 0 0 0 0 0 0 0 0 0 0 0 0 0 0 0 0
0 0 0 0 0 0 0 0 0 0 0 0 0 0 0 0 0 0 0 0 0 0 0 0 0 0 0 0 0 0 0 0 0 0 0 0 0 0 0 0 0 0 0 0 0 0 0 0 0
0 0 0 0 0 0 0 0 0 0 0 0 0 0 0 0 0 0 0 0 0 0 0 0 0 0 0 0 0 0 0 0 0 0 0 0 0 0 0 0 0 0 0 0 0 0 0 0 0
0 0 0 0 0 0 0 0 0 0 0 0 0 0 0 0 0 0 0 0 0 0 0 0 0 0 0 0 0 0 0 0 0 0 0 0 0 0 0 0 0 0 0 0 0 0 0 0 0
0 0 0 0 0 0 0 0 0 0 0 0 0 0 0 0 0 0 0 0 0 0 0 0 0 0 0 0 0 0 0 0 0 0 0 0 0 0 0 0 0 0 0 0 0 0 0 0 0
0 0 0 0 0 0 0 0 0 0 0 0 0 0 0 0 0 0 0 0 0 0 0 0 0 0 0 0 0 0 0 0 0 0 0 0 0 0 0 0 0 0 0 0 0 0 0 0 0
0 0 0 0 0 0 0 0 0 0 0 0 0 0 0 0 0 0 0 0 0 0 0 0 0 0 0 0 0 0 0 0 0 0 0 0 0 0 0 0 0 0 0 0 0 0 0 0 0
0 0 0 0 0 0 0 0 0 0 0 0 0 0 0 0 0 0 0 0 0 0 0 0 0 0 0 0 0 0 0 0 0 0 0 0 0 0 0 0 0 0 0 0 0 0 0 0 0
0 0 0 0 0 0 0 0 0 0 0 0 0 0 0 0 0 0 0 0 0 0 0 0 0 0 0 0 0 0 0 0 0 0 0 0 0 0 0 0 0 0 0 0 0 0 0 0 0
0 0 0 0 0 0 0 0 0 0 0 0 0 0 0 0 0 0 0 0 0 0 0 0 0 0 0 0 0 0 0 0 0 0 0 0 0 0 0 0 0 0 0 0 0 0 0 0 0
0 0 0 0 0 0 0 0 0 0 0 0 0 0 0 0 0 0 0 0 0 0 0 0 0 0 0 0 0 0 0 0 0 0 0 0 0 0 0 0 0 0 0 0 0 0 0 0 0
0 0 0 0 0 0 0 0 0 0 0 0 0 0 0 0 0 0 0 0 0 0 0 0 0 0 0 0 0 0 0 0 0 0 0 0 0 0 0 0 0 0 0 0 0 0 0 0 0
0 0 0 0 0 0 0 0 0 0 0 0 0 0 0 0 0 0 0 0 0 0 0 0 0 0 0 0 0 0 0 0 0 0 0 0 0 0 0 0 0 0 0 0 0 0 0 0 0
0 0 0 0 0 0 0 0 0 0 0 0 0 0 0 0 0 0 0 0 0 0 0 0 0 0 0 0 0 0 0 0 0 0 0 0 0 0 0 0 0 0 0 0 0 0 0 0 0
0 0 0 0 0 0 0 0 0 0 0 0 0 0 0 0 0 0 0 0 0 0 0 0 0 0 0 0 0 0 0 0 0 0 0 0 0 0 0 0 0 0 0 0 0 0 0 0 0
0 0 0 0 0 0 0 0 0 0 0 0 0 0 0 0 0 0 0 0 0 0 0 0 0 0 0 0 0 0 0 0 0 0 0 0 0 0 0 0 0 0 0 0 0 0 0 0 0
0 0 0 0 0 0 0 0 0 0 0 0 0 0 0 0 0 0 0 0 0 0 0 0 0 0 0 0 0 0 0 0 0 0 0 0 0 0 0 0 0 0 0 0 0 0 0 0 0
Height
5836 5838 5840 5842 5843 5844 5846 5848 5848 5849 5850 5850 5850 5850 5850 5850 5849 5850 5849 5847 5847 5847 5846 5846 5845 5844 5844 5844 5843 5843 5843 5843 5843 5842 5842 5842 5841 5841 5841 5840 5840 5840 5839 5839 5838 5837 5836 5836 5836
5836 5837 5839 5840 5841 5843 5846 5846 5847 5848 5848 5848 5848 5848 5848 5846 5845 5844 5844 5844 5844 5843 5842 5842 5842 5842 5841 5841 5840 5840 5840 5840 5839 5839 5839 5838 5838 5838 5838 5837 5836 5836 5835 5835 5834 5833 5833 5833 5833
5835 5835 5837 5838 5840 5842 5844 5845 5845 5845 5845 5845 5846 5846 5845 5844 5842 5841 5841 5840 5840 5839 5838 5838 5838 5838 5837 5837 5837 5837 5836 5836 5836 5835 5835 5835 5834 5834 5834 5834 5833 5832 5831 5830 5830 5829 5828 5829 5829
5834 5835 5836 5838 5839 5841 5841 5841 5841 5841 5842 5842 5842 5843 5842 5841 5839 5838 5838 5837 5836 5836 5835 5835 5834 5834 5833 5833 5833 5832 5832 5832 5831 5831 5831 5831 5830 5830 5830 5830 5829 5828 5828 5827 5827 5826 5825 5825 5825
5833 5834 5835 5836 5837 5838 5838 5838 5839 5838 5839 5839 5839 5838 5838 5837 5836 5835 5834 5833 5833 5832 5832 5831 5830 5830 5829 5829 5828 5828 5827 5827 5827 5826 5826 5825 5825 5825 5825 5825 5824 5824 5824 5823 5823 5823 5822 5822 5821
5833 5833 5834 5834 5835 5835 5835 5835 5834 5834 5834 5834 5834 5834 5833 5832 5832 5832 5831 5830 5829 5828 5827 5826 5825 5825 5825 5824 5824 5823 5823 5822 5821 5821 5821 5821 5820 5820 5819 5819 5819 5819 5819 5819 5819 5819 5818 5818 5817
5831 5831 5831 5831 5832 5832 5832 5831 5831 5830 5830 5830 5829 5829 5828 5828 5828 5828 5827 5827 5826 5824 5822 5821 5820 5819 5819 5819 5818 5818 5817 5816 5816 5816 5815 5815 5815 5814 5814 5814 5813 5813 5814 5814 5814 5813 5813 5813 5813
5827 5828 5827 5827 5828 5828 5828 5827 5827 5827 5827 5826 5825 5824 5824 5824 5823 5822 5822 5821 5820 5819 5817 5816 5815 5813 5813 5813 5813 5812 5811 5811 5810 5810 5809 5809 5808 5808 5808 5808 5808 5808 5809 5809 5809 5808 5807 5807 5807
5823 5825 5823 5824 5824 5824 5824 5824 5824 5824 5823 5821 5820 5820 5819 5819 5817 5816 5816 5815 5814 5812 5810 5809 5808 5807 5806 5805 5806 5805 5805 5804 5804 5803 5803 5803 5802 5802 5802 5802 5802 5803 5803 5803 5803 5802 5801 5801 5801
5821 5821 5820 5821 5820 5820 5819 5819 5819 5819 5818 5816 5814 5814 5814 5813 5812 5811 5809 5808 5807 5806 5805 5803 5802 5801 5800 5799 5799 5799 5799 5798 5797 5797 5796 5796 5795 5795 5795 5795 5795 5795 5795 5795 5795 5795 5794 5794 5793
5818 5817 5817 5817 5816 5816 5816 5815 5815 5814 5813 5809 5809 5810 5809 5808 5807 5806 5804 5802 5801 5799 5799 5798 5797 5796 5795 5794 5793 5792 5792 5791 5791 5790 5789 5789 5788 5788 5787 5787 5786 5786 5786 5785 5786 5786 5786 5785 5785
5815 5813 5813 5813 5813 5813 5812 5812 5811 5810 5808 5807 5806 5806 5805 5804 5803 5802 5800 5797 5796 5794 5793 5791 5790 5789 5788 5786 5785 5784 5783 5783 5782 5782 5781 5780 5779 5778 5778 5777 5777 5776 5776 5776 5776 5776 5776 5776 5776
5812 5811 5811 5810 5810 5810 5809 5808 5808 5806 5805 5804 5802 5801 5800 5798 5796 5795 5792 5790 5788 5787 5785 5783 5780 5779 5778 5777 5776 5775 5773 5772 5771 5770 5769 5768 5768 5767 5767 5766 5766 5766 5765 5765 5765 5765 5766 5766 5767
5809 5808 5807 5807 5806 5806 5806 5805 5803 5801 5800 5799 5798 5797 5795 5792 5790 5788 5785 5782 5781 5779 5777 5774 5773 5771 5770 5768 5767 5765 5763 5762 5761 5760 5758 5756 5755 5755 5755 5754 5753 5753 5753 5754 5754 5755 5755 5755 5755
5807 5807 5805 5804 5803 5802 5802 5801 5798 5796 5795 5794 5792 5790 5788 5786 5783 5781 5778 5776 5774 5772 5769 5767 5765 5763 5762 5760 5759 5757 5755 5753 5751 5749 5747 5745 5743 5742 5741 5741 5740 5740 5741 5742 5743 5743 5744 5744 5744
5804 5804 5802 5800 5799 5797 5799 5798 5794 5791 5790 5789 5787 5784 5781 5779 5777 5775 5772 5770 5767 5764 5761 5759 5756 5754 5751 5749 5747 5745 5743 5741 5740 5738 5736 5734 5732 5730 5729 5728 5727 5727 5728 5729 5731 5731 5732 5733 5733
5801 5799 5798 5796 5793 5792 5792 5793 5790 5786 5785 5785 5782 5779 5776 5773 5771 5767 5764 5761 5758 5755 5752 5749 5746 5743 5739 5737 5734 5731 5729 5727 5725 5724 5722 5721 5720 5718 5717 5716 5714 5715 5715 5717 5718 5719 5720 5721 5723
5796 5794 5792 5790 5788 5787 5786 5787 5786 5782 5780 5778 5776 5772 5769 5765 5762 5758 5755 5751 5748 5744 5741 5738 5734 5730 5727 5725 5721 5717 5714 5712 5711 5710 5708 5706 5704 5704 5704 5703 5702 5702 5703 5704 5706 5706 5707 5709 5712
5790 5788 5787 5785 5782 5783 5782 5781 5780 5778 5774 5771 5769 5764 5761 5757 5752 5748 5745 5740 5736 5732 5729 5725 5721 5716 5713 5709 5706 5703 5700 5698 5697 5696 5695 5693 5691 5690 5689 5689 5689 5690 5691 5692 5693 5694 5695 5697 5700
5784 5783 5782 5782 5778 5778 5778 5777 5774 5771 5767 5765 5760 5755 5751 5746 5742 5737 5733 5728 5723 5718 5714 5710 5706 5701 5698 5694 5691 5689 5686 5684 5683 5682 5681 5681 5680 5679 5677 5677 5677 5678 5679 5680 5681 5681 5683 5685 5687
5779 5778 5777 5776 5775 5773 5772 5770 5768 5762 5758 5753 5748 5743 5739 5734 5729 5724 5718 5714 5708 5703 5699 5695 5691 5687 5682 5679 5676 5673 5672 5670 5670 5669 5668 5667 5666 5666 5665 5666 5666 5667 5669 5669 5669 5670 5671 5672 5673
5776 5774 5772 5770 5767 5765 5765 5760 5758 5750 5744 5737 5732 5728 5724 5720 5714 5708 5703 5697 5691 5686 5682 5678 5674 5670 5666 5664 5663 5660 5658 5656 5655 5654 5653 5652 5652 5651 5652 5654 5654 5655 5657 5658 5657 5657 5659 5659 5660
5771 5769 5767 5764 5760 5757 5754 5753 5751 5740 5729 5721 5716 5711 5707 5704 5699 5693 5688 5683 5677 5671 5667 5662 5658 5654 5650 5648 5647 5646 5645 5643 5641 5639 5638 5638 5637 5636 5639 5642 5642 5643 5644 5645 5645 5645 5646 5646 5646
5765 5762 5760 5756 5752 5748 5743 5740 5739 5727 5715 5708 5701 5696 5691 5686 5681 5677 5672 5666 5660 5654 5650 5645 5641 5637 5634 5632 5631 5631 5630 5629 5628 5627 5625 5623 5624 5625 5626 5627 5629 5631 5632 5633 5632 5631 5631 5631 5630
5758 5754 5749 5746 5741 5736 5730 5726 5725 5712 5700 5693 5688 5683 5676 5670 5666 5660 5654 5649 5643 5638 5633 5629 5626 5623 5620 5618 5618 5617 5616 5615 5614 5613 5612 5612 5613 5613 5614 5616 5617 5618 5618 5619 5619 5620 5619 5617 5615
5748 5743 5738 5733 5727 5724 5718 5713 5709 5695 5685 5678 5673 5667 5659 5653 5648 5643 5637 5632 5628 5623 5619 5615 5612 5609 5607 5605 5605 5605 5604 5603 5601 5600 5598 5597 5598 5600 5602 5604 5605 5606 5606 5607 5607 5607 5605 5603 5601
5737 5731 5724 5717 5711 5707 5705 5702 5693 5678 5670 5664 5654 5647 5643 5638 5632 5627 5621 5615 5612 5608 5604 5600 5597 5595 5594 5593 5593 5592 5591 5589 5587 5586 5584 5582 5583 5586 5590 5593 5594 5595 5595 5595 5594 5593 5591 5590 5589
5726 5718 5710 5700 5692 5687 5688 5686 5674 5660 5654 5645 5638 5633 5628 5620 5614 5609 5605 5600 5595 5591 5588 5585 5583 5582 5581 5580 5580 5579 5578 5575 5573 5571 5570 5570 5571 5575 5578 5580 5583 5584 5584 5584 5582 5580 5578 5578 5577
5714 5705 5695 5686 5677 5668 5665 5676 5658 5643 5635 5627 5620 5612 5603 5598 5594 5589 5585 5581 5578 5575 5573 5571 5570 5568 5567 5566 5565 5565 5564 5563 5561 5560 5558 5558 5559 5562 5566 5569 5570 5572 5572 5572 5570 5569 5568 5567 5566
5701 5692 5681 5673 5667 5654 5641 5649 5644 5626 5616 5605 5596 5590 5583 5579 5576 5571 5567 5563 5560 5558 5557 5556 5555 5554 5553 5552 5552 5552 5552 5550 5548 5547 5546 5547 5548 5551 5554 5557 5559 5560 5561 5560 5559 5557 5556 5555 5554
Wind_Speed
8 10 10 11 12 13 12 12 13 14 16 17 17 16 16 16 17 19 18 18 18 19 19 19 19 19 19 18 17 17 18 18 18 18 18 18 17 18 19 19 18 17 17 18 19 18 17 15 15
7 8 9 10 11 11 10 10 12 14 16 17 17 17 16 18 20 20 19 20 20 21 19 17 17 18 19 20 20 19 20 20 21 21 20 20 21 22 22 21 20 20 20 21 21 20 17 16 16
7 8 8 9 10 9 9 9 11 13 16 18 18 17 17 19 21 21 21 21 20 18 17 17 18 20 21 21 22 22 22 22 23 22 22 22 23 25 25 24 23 23 24 24 23 20 18 16 16
6 6 8 8 8 8 9 11 12 13 15 17 17 16 18 19 21 21 20 19 18 17 19 20 21 21 23 24 24 24 24 24 24 24 24 24 26 27 27 26 26 26 26 25 22 19 18 16 16
10 10 9 9 9 9 11 13 15 17 18 19 19 20 21 20 20 20 19 20 21 22 22 23 24 23 24 25 26 26 26 26 26 26 26 26 27 28 28 27 27 26 25 24 22 21 20 18 17
13 13 13 13 14 14 15 16 18 20 20 21 21 21 21 20 19 19 21 23 24 25 25 25 26 26 26 27 27 28 28 28 28 28 28 29 29 29 29 28 27 26 24 23 21 21 21 19 19
14 14 14 15 16 17 17 18 20 21 21 21 22 21 22 23 23 24 24 24 25 26 27 27 28 29 28 28 28 29 30 30 30 30 30 30 30 29 28 26 26 25 24 23 22 22 22 21 21
17 18 19 19 20 20 20 21 22 23 24 25 26 25 25 26 27 28 29 29 28 29 29 29 30 30 29 28 28 28 29 29 29 29 29 29 29 27 26 25 26 26 26 25 25 25 26 24 24
19 19 21 21 21 22 21 22 24 25 26 27 28 29 28 28 29 30 31 31 31 30 29 28 27 28 29 29 29 28 28 28 28 27 27 27 26 26 27 27 28 28 29 29 29 28 29 29 28
18 20 21 20 21 21 21 23 24 24 25 27 29 30 29 28 29 30 30 29 28 26 24 24 25 26 27 28 28 27 27 27 28 28 28 28 29 30 31 32 33 34 34 34 33 33 33 33 34
16 19 21 20 19 19 19 20 20 19 20 25 26 27 27 27 27 27 26 26 26 26 24 23 24 25 27 29 30 29 29 31 32 33 33 34 36 36 37 38 39 39 39 38 38 38 38 38 38
16 20 20 18 17 16 16 16 15 14 18 19 20 21 21 21 22 23 25 27 28 29 30 30 29 29 30 32 34 35 37 38 40 41 41 42 43 43 43 43 44 43 43 43 43 43 43 42 42
14 17 16 15 15 11 11 12 10 15 15 14 16 18 20 22 24 26 28 31 32 33 33 34 34 35 36 37 38 40 42 44 45 47 48 48 48 49 49 49 48 47 47 47 47 46 45 45 45
12 13 13 13 13 13 14 14 16 20 17 17 19 20 21 23 25 27 30 32 32 34 35 35 36 36 37 38 40 41 43 45 47 49 51 52 53 53 53 53 52 50 49 49 48 48 47 47 47
14 14 15 16 17 18 15 13 20 20 18 18 19 21 23 25 27 29 32 33 34 36 38 39 39 40 40 41 42 43 45 46 47 48 49 51 53 54 55 54 53 52 50 49 48 48 47 48 48
18 17 18 20 20 19 15 12 20 20 20 19 21 23 26 28 29 32 35 35 37 39 42 43 45 46 47 47 47 48 50 51 51 51 50 50 50 51 52 52 52 52 51 49 48 47 47 46 46
20 19 20 23 24 21 16 11 19 23 22 21 24 27 29 32 34 37 39 40 42 44 46 47 49 51 53 54 54 55 56 55 54 53 52 50 48 48 48 49 51 52 51 49 48 47 46 45 45
23 24 24 24 25 21 20 15 18 23 24 24 27 31 34 36 39 42 42 44 46 49 51 52 53 56 57 58 59 61 62 60 54 51 50 49 48 47 47 47 47 48 48 47 46 46 45 45 45
26 26 23 22 23 20 21 21 22 23 27 29 33 37 38 41 45 46 46 49 52 54 56 57 59 62 62 62 62 63 61 58 53 50 49 49 49 49 48 48 46 47 46 46 46 45 45 45 45
26 24 23 21 24 24 23 26 27 30 34 38 42 45 47 49 50 50 52 54 57 58 59 60 63 64 64 63 64 64 59 54 52 52 51 50 49 49 47 47 45 43 43 42 42 43 44 47 48
24 23 23 23 25 28 31 33 36 42 45 49 51 52 54 55 56 57 58 59 61 61 62 63 64 65 64 64 62 61 58 55 52 53 54 51 50 50 47 45 44 41 41 41 40 40 44 47 49
21 24 26 29 32 34 36 42 45 54 56 58 58 59 59 60 60 62 64 64 63 63 63 63 64 65 65 65 60 58 57 53 51 52 50 50 49 48 45 45 44 42 41 39 39 41 43 45 47
26 29 33 36 39 43 47 50 53 59 62 64 65 65 64 64 65 65 64 63 63 62 62 62 64 64 64 64 62 58 52 49 47 46 46 48 50 45 39 42 40 39 38 39 41 41 44 46 48
33 36 39 44 49 53 56 59 60 64 68 69 71 71 70 69 68 67 66 64 62 60 58 59 61 61 62 61 58 53 49 47 45 44 43 46 46 43 41 41 39 39 39 40 39 42 46 49 52
41 45 49 53 56 59 62 66 66 70 72 73 73 71 71 70 68 68 66 63 59 56 54 56 58 58 58 56 54 51 49 47 47 46 42 46 48 42 40 41 41 40 39 39 40 44 47 50 51
48 52 55 59 61 64 66 69 68 71 72 73 72 73 73 73 71 68 63 59 55 52 52 53 55 56 55 54 53 51 50 48 50 49 44 47 50 48 41 42 41 40 40 40 41 45 48 48 46
53 56 59 63 66 69 70 71 71 73 74 74 75 74 73 72 71 66 59 55 51 51 51 51 54 55 53 53 53 53 52 50 50 47 45 45 44 43 40 41 41 42 42 41 41 44 46 45 43
57 59 61 62 67 71 71 71 76 77 76 77 77 76 73 72 69 62 56 52 50 51 50 51 55 55 55 56 56 57 51 46 43 40 42 42 38 36 37 39 40 42 42 41 41 44 43 43 42
60 61 63 67 67 71 73 69 74 76 77 79 78 77 75 71 66 59 53 49 49 52 52 52 54 54 52 53 54 54 49 43 46 44 41 39 36 35 37 40 41 42 42 41 41 42 42 42 42
61 62 65 66 68 72 75 76 74 76 78 77 77 75 71 66 59 53 49 45 45 48 48 48 51 50 49 52 51 51 53 49 46 44 38 36 34 36 38 41 41 41 40 39 41 42 42 41 41
Wind_Direction
237 237 231 229 227 229 230 236 243 248 250 254 259 261 267 273 275 279 283 285 287 290 293 295 294 294 292 288 284 280 277 274 274 276 280 282 284 290 295 297 296 299 303 307 308 309 305 303 298
240 239 238 236 238 240 241 247 255 259 262 264 267 269 271 273 274 277 282 285 286 287 290 289 287 287 286 283 280 278 274 271 272 274 277 280 284 288 291 292 294 298 302 305 307 305 301 298 297
246 247 244 245 252 256 260 262 265 267 269 270 268 267 268 273 276 281 285 285 284 285 286 283 282 284 283 279 277 275 272 271 272 274 277 279 282 285 288 291 294 299 302 303 303 301 299 296 296
251 250 250 252 257 262 263 256 252 256 261 266 269 269 269 273 279 284 285 283 283 282 282 283 283 283 282 280 279 275 273 273 274 276 278 280 282 284 286 288 291 294 295 295 295 295 295 296 298
261 261 261 264 267 262 262 265 267 265 265 269 273 275 275 275 278 282 284 285 285 284 282 281 280 280 280 279 278 276 274 274 275 277 278 279 281 283 284 285 287 288 290 291 291 291 292 296 299
262 265 268 273 274 272 270 271 271 272 273 276 277 276 276 277 276 277 280 282 285 286 286 284 283 280 279 278 278 277 277 277 277 278 279 281 282 283 283 285 286 285 285 285 285 287 287 292 294
264 265 268 269 270 271 273 275 277 280 283 282 282 282 281 281 281 281 283 285 286 286 285 284 283 282 282 280 278 275 275 276 277 278 279 279 279 279 279 279 279 278 278 279 280 280 281 283 286
263 265 266 265 267 270 273 276 279 282 284 284 283 285 285 285 287 288 288 288 287 285 284 283 283 283 282 280 278 278 278 278 279 278 278 277 277 277 276 275 276 277 279 280 281 281 283 283 282
263 266 267 268 270 273 276 279 280 281 281 283 283 283 284 286 287 288 289 289 288 287 285 283 282 282 281 280 278 277 276 275 274 274 274 272 271 273 274 274 275 277 278 280 281 281 283 285 284
262 266 268 269 271 274 278 280 281 284 283 280 280 282 285 288 290 290 291 290 290 288 287 285 283 280 279 279 278 274 270 268 269 270 270 269 269 270 272 273 274 275 276 277 277 278 280 281 281
265 266 268 270 273 279 283 286 289 289 284 276 276 279 284 288 290 291 292 293 293 293 290 287 283 280 279 280 280 278 275 272 273 274 273 272 271 271 270 272 273 275 276 277 277 276 276 277 278
266 263 268 272 276 281 287 293 298 296 281 284 288 288 288 288 288 289 290 289 288 288 288 286 283 280 278 278 279 280 280 280 280 279 278 277 275 274 273 272 273 273 274 275 275 274 274 274 275
268 268 274 278 280 284 286 286 293 281 288 288 283 284 287 288 289 289 288 286 285 284 283 282 282 281 280 279 278 278 278 279 280 281 280 279 278 277 276 275 274 273 272 271 271 270 270 271 273
265 266 267 265 268 274 278 284 282 279 293 290 292 292 291 288 287 286 286 287 289 289 287 286 285 284 284 284 283 283 282 281 279 279 279 279 278 277 275 274 273 272 270 269 268 268 268 269 269
268 269 274 275 276 277 278 277 277 287 290 291 291 290 286 284 286 286 288 292 293 292 290 289 289 288 287 285 284 282 281 281 280 278 277 276 276 276 275 274 272 271 269 268 266 266 266 266 267
276 274 275 275 272 272 273 263 268 282 286 288 289 289 290 291 292 292 292 294 294 293 293 293 293 292 292 292 292 290 287 285 283 281 279 277 275 274 273 272 271 269 268 267 266 264 263 262 263
276 274 270 272 271 272 270 249 260 277 284 289 289 291 292 294 294 292 292 291 290 291 290 289 288 288 289 289 289 288 287 286 285 283 281 281 278 274 271 269 268 267 266 265 264 263 262 261 262
277 272 270 269 268 268 272 269 269 280 291 292 293 294 294 294 293 291 291 290 289 289 288 288 288 289 289 289 288 287 287 287 285 281 279 278 277 273 269 265 264 264 265 265 263 261 260 260 261
276 273 271 273 269 269 276 287 289 293 293 297 296 294 293 294 295 293 293 293 291 289 289 289 290 291 291 289 288 288 287 286 282 278 277 277 273 269 266 264 261 260 259 259 258 258 259 260 260
281 278 276 277 278 282 285 289 293 298 297 298 296 295 295 295 294 293 294 295 293 290 288 288 288 289 289 289 290 290 287 282 277 273 272 276 272 267 263 262 259 257 256 255 254 255 258 261 263
284 283 284 287 285 291 294 294 298 299 301 301 299 297 297 296 296 296 295 294 293 291 289 289 291 291 289 288 288 288 285 282 278 273 272 271 265 262 262 261 259 256 255 255 256 259 261 263 263
288 291 298 303 303 303 301 302 303 303 305 303 301 301 299 299 298 297 295 294 292 291 291 292 291 289 288 288 286 284 283 281 276 274 273 267 259 258 258 257 254 254 258 261 263 263 264 265 265
295 298 302 304 303 303 302 301 304 305 305 304 305 304 303 303 301 299 297 295 294 293 292 290 288 286 285 285 284 282 281 278 277 278 275 264 253 251 256 255 253 256 261 266 267 267 268 269 269
299 299 299 299 299 301 302 302 306 307 304 305 305 306 306 304 304 303 301 299 297 294 290 286 284 284 284 284 283 283 282 280 280 281 276 272 265 254 255 254 253 255 259 263 268 271 274 275 275
298 298 300 300 301 302 302 304 306 304 304 304 305 305 304 303 303 303 302 300 296 291 285 282 281 280 280 280 279 281 282 282 284 284 278 269 266 257 254 253 251 254 261 267 268 272 276 279 280
297 300 304 304 302 300 300 303 304 303 303 305 306 305 303 302 303 304 303 300 295 285 279 275 275 275 274 274 277 279 281 283 284 284 283 272 260 256 250 253 254 257 263 266 269 276 281 282 279
302 304 304 304 302 300 300 302 302 303 306 307 305 304 303 303 302 300 298 295 290 282 275 270 269 268 268 270 274 278 282 282 284 284 283 272 254 247 250 255 257 262 268 273 278 282 282 280 275
304 306 308 307 305 305 304 305 305 305 306 303 303 303 302 300 299 298 294 289 283 275 268 267 269 269 269 270 274 278 281 284 286 281 279 264 249 249 254 255 257 266 272 276 281 283 281 278 273
307 309 308 306 308 309 307 305 305 306 304 304 304 302 300 298 298 297 292 285 282 281 278 274 271 272 272 272 277 280 286 290 287 280 273 260 253 252 253 252 259 268 272 276 283 284 280 275 271
309 310 309 310 311 308 306 306 308 306 307 305 302 300 299 299 299 298 293 284 282 279 272 277 275 274 270 269 275 281 289 286 286 279 262 251 251 251 254 257 261 268 271 278 283 284 283 277 272